Home   Weather   Punta Gorda   Past weeks
Flag for Belize

Past Weather in Punta Gorda, Belize — Yesterday and Last 2 Weeks

Now
64 °F

Sunny.


Feels Like: 64 °F
Forecast: 85 / 64 °F
Wind: No wind

Location: Puerto Barrios Airport

Current Time: Mar 24, 2019 at 7:29:11 am

Latest Report: Mar 24, 2019 at 7:00 am


Visibility: 10 mi

Pressure: 30.07 "Hg

Humidity: 94%

Dew Point: 63 °F

Location of Punta GordaLocation

Past Weather in Punta Gorda — Graph

°F

Punta Gorda Temperature Yesterday

Maximum temperature yesterday: 82 °F (at 2:00 pm)
Minimum temperature yesterday: 68 °F (at 6:00 am)
Average temperature yesterday: 74 °F

High & Low Weather Summary for the Past Weeks

 TemperatureHumidityPressure
High88 °F (Mar 9, 1:00 pm)100% (Mar 10, 2:00 am)30.24 "Hg (Mar 10, 2:00 am)
Low63 °F (Mar 24, 5:00 am)39% (Mar 23, 3:00 pm)29.80 "Hg (Mar 13, 3:00 pm)
Average77 °F86%29.97 "Hg
* Reported Mar 9 6:00 am — Mar 24 6:00 am, Punta Gorda. Weather by CustomWeather, © 2019

Note: Actual official high and low records may vary slightly from our data, if they occured in-between our weather recording intervals... More about our weather records

Advertising

Punta Gorda Weather History for the Previous 24 Hours

Scroll right to see more
 ConditionsComfort  
Time TempWeatherWind HumidityBarometerVisibility
6:00 am
Sun, Mar 24
63 °FSunny.No wind94%30.04 "Hg10 mi
5:00 am63 °FClear.No wind100%30.04 "Hg10 mi
4:00 am64 °FClear.No wind94%30.01 "Hg10 mi
3:00 am64 °FClear.No wind100%30.01 "Hg10 mi
2:00 am66 °FClear.No wind94%30.01 "Hg10 mi
1:00 am66 °FClear.No wind100%30.04 "Hg10 mi
12:00 am68 °FClear.No wind94%30.07 "Hg10 mi
11:00 pm
Sat, Mar 23
68 °FClear.No wind100%30.09 "Hg10 mi
10:00 pm70 °FClear.No wind94%30.09 "Hg10 mi
9:00 pm70 °FClear.No wind94%30.07 "Hg10 mi
8:00 pm72 °FClear.No wind88%30.07 "Hg10 mi
7:00 pm73 °FClear.No wind89%30.04 "Hg10 mi
6:00 pm79 °FSunny.5 mph74%30.01 "Hg10 mi
5:00 pm82 °FSunny.No wind70%30.01 "Hg10 mi
4:00 pm82 °FPassing clouds.7 mph70%30.01 "HgN/A
3:00 pm79 °FPleasantly warm.N/A39%30.24 "HgN/A
2:00 pm82 °FScattered clouds.12 mph70%30.04 "HgN/A
1:00 pm81 °FScattered clouds.9 mph74%30.07 "HgN/A
12:00 pm81 °FScattered clouds.9 mph74%30.07 "HgN/A
11:00 am79 °FPartly sunny.7 mph79%30.09 "HgN/A
10:00 am79 °FScattered clouds.5 mph79%30.09 "HgN/A
9:00 am73 °FPartly sunny.No wind94%30.09 "HgN/A
8:00 am73 °FBroken clouds.No wind94%30.07 "HgN/A
7:00 am72 °FPartly sunny.No wind94%30.04 "HgN/A
Weather by CustomWeather, © 2019

See weather overview